TimeEDT,TemperatureF,Dew PointF,Humidity,Sea Level PressureIn,VisibilityMPH,Wind Direction,Wind SpeedMPH,Gust SpeedMPH,PrecipitationIn,Events,Conditions,WindDirDegrees,DateUTC
12:45 AM,69.1,66.9,93,30.06,1.8,Calm,Calm,-,N/A,,Clear,0,2013-08-04 04:45:00
12:54 AM,69.1,66.9,93,30.04,3.0,Calm,Calm,-,N/A,,Clear,0,2013-08-04 04:54:00
1:04 AM,69.1,66.9,93,30.06,1.8,Calm,Calm,-,N/A,,Clear,0,2013-08-04 05:04:00
1:31 AM,69.1,66.9,93,30.06,1.0,Calm,Calm,-,N/A,,Mist,0,2013-08-04 05:31:00
1:38 AM,69.1,66.9,93,30.06,0.5,Calm,Calm,-,N/A,Fog,Fog,0,2013-08-04 05:38:00
1:50 AM,69.8,66.2,88,30.06,0.2,Calm,Calm,-,N/A,Fog,Fog,0,2013-08-04 05:50:00
1:54 AM,68.0,66.0,93,30.03,0.2,Calm,Calm,-,N/A,Fog,Fog,0,2013-08-04 05:54:00
2:05 AM,68.0,66.0,93,30.06,0.2,Calm,Calm,-,N/A,Fog,Fog,0,2013-08-04 06:05:00
2:26 AM,68.0,66.0,93,30.06,1.0,Calm,Calm,-,N/A,,Clear,0,2013-08-04 06:26:00
2:33 AM,68.0,66.9,96,30.06,5.0,Calm,Calm,-,N/A,,Clear,0,2013-08-04 06:33:00
2:40 AM,66.9,66.0,97,30.05,5.0,Calm,Calm,-,N/A,,Scattered Clouds,0,2013-08-04 06:40:00
2:49 AM,68.0,66.2,94,30.06,5.0,Calm,Calm,-,N/A,,Mostly Cloudy,0,2013-08-04 06:49:00
2:54 AM,66.0,64.9,96,30.04,5.0,NNW,3.5,-,N/A,,Mostly Cloudy,330,2013-08-04 06:54:00
2:57 AM,64.9,64.0,97,30.06,0.2,Calm,Calm,-,N/A,Fog,Fog,0,2013-08-04 06:57:00
3:14 AM,66.0,64.0,93,30.06,1.0,NNW,5.8,-,N/A,,Mist,330,2013-08-04 07:14:00
3:19 AM,66.0,64.9,96,30.06,2.0,NNW,5.8,-,N/A,,Scattered Clouds,330,2013-08-04 07:19:00
3:27 AM,66.0,64.9,96,30.06,6.0,NNW,6.9,-,N/A,,Partly Cloudy,340,2013-08-04 07:27:00
3:54 AM,66.0,64.0,93,30.04,10.0,NNW,5.8,-,N/A,,Clear,340,2013-08-04 07:54:00
4:54 AM,64.9,62.1,90,30.05,10.0,North,6.9,-,N/A,,Clear,350,2013-08-04 08:54:00
5:54 AM,64.0,60.1,87,30.06,10.0,North,6.9,-,N/A,,Scattered Clouds,350,2013-08-04 09:54:00
6:54 AM,63.0,59.0,87,30.07,10.0,NNW,3.5,-,N/A,,Clear,340,2013-08-04 10:54:00
7:54 AM,64.0,59.0,84,30.09,10.0,NNW,8.1,-,N/A,,Mostly Cloudy,340,2013-08-04 11:54:00
8:54 AM,66.9,57.9,73,30.11,10.0,North,8.1,-,N/A,,Scattered Clouds,350,2013-08-04 12:54:00
9:54 AM,70.0,59.0,68,30.11,10.0,NNW,5.8,-,N/A,,Clear,330,2013-08-04 13:54:00
10:54 AM,73.9,59.0,59,30.11,10.0,North,8.1,-,N/A,,Clear,350,2013-08-04 14:54:00
11:54 AM,75.9,57.9,54,30.12,10.0,NNW,8.1,-,N/A,,Clear,340,2013-08-04 15:54:00
12:54 PM,78.1,57.9,50,30.11,10.0,NE,9.2,-,N/A,,Clear,40,2013-08-04 16:54:00
1:54 PM,75.9,57.9,54,30.11,10.0,North,11.5,-,N/A,,Scattered Clouds,360,2013-08-04 17:54:00
2:54 PM,79.0,55.0,44,30.10,10.0,NNE,11.5,-,N/A,,Partly Cloudy,20,2013-08-04 18:54:00
3:54 PM,81.0,55.9,42,30.09,10.0,NNW,6.9,-,N/A,,Partly Cloudy,340,2013-08-04 19:54:00
4:54 PM,77.0,55.9,48,30.09,10.0,North,9.2,-,N/A,,Clear,350,2013-08-04 20:54:00
5:54 PM,78.1,55.0,45,30.09,10.0,North,10.4,-,N/A,,Partly Cloudy,350,2013-08-04 21:54:00
6:54 PM,77.0,54.0,45,30.08,10.0,NNE,8.1,-,N/A,,Clear,30,2013-08-04 22:54:00
7:54 PM,73.9,57.0,55,30.09,10.0,North,5.8,-,N/A,,Partly Cloudy,350,2013-08-04 23:54:00
8:54 PM,71.1,55.9,59,30.10,10.0,North,4.6,-,N/A,,Clear,10,2013-08-05 00:54:00
9:54 PM,68.0,55.0,63,30.10,10.0,NNE,4.6,-,N/A,,Clear,30,2013-08-05 01:54:00
10:54 PM,64.9,57.9,78,30.11,10.0,Calm,Calm,-,N/A,,Clear,0,2013-08-05 02:54:00
11:54 PM,64.0,55.0,73,30.12,10.0,NE,3.5,-,N/A,,Clear,50,2013-08-05 03:54:00